Location: 3 Angels Observatory
(30.5437°N, 88.5068°W)
Time: 23:52:00
(UTC-05:00)

Daily predictions for brighter satellites

Satellite Brightness Start Highest point End
(mag) Time Altitude Azimuth Time Altitude Azimuth Time Altitude Azimuth
Cosmos 1400 Rocket 3.0 20:15:29 10° S 20:19:35 80° W 20:23:40 10° N
Cosmos 2242 Rocket 4.3 20:16:14 10° NNE 20:20:21 35° E 20:24:24 10° SSE
Star 37E S/N 40062 2.5 20:19:36 10° W 20:21:24 65° S 20:24:19 10° E
Cosmos 1455 4.2 20:18:56 10° NNW 20:22:16 31° W 20:25:34 10° SSW
Cosmos 1666 Rocket 4.4 20:20:09 10° SSW 20:24:26 56° W 20:28:43 10° N
NOSS 3-2 (C) 3.4 20:19:50 10° SSW 20:25:36 64° ESE 20:31:48 10° NE
SL-27 R/B 4.4 20:22:40 10° NW 20:25:45 30° W 20:28:51 10° SSW
Sich 1 4.1 20:23:04 10° SSW 20:27:15 51° W 20:31:29 10° N
Resurs 01 Rocket 1.6 20:24:01 10° SSE 20:28:23 71° ENE 20:32:48 10° N
Helios 1B rocket 3.5 20:26:02 10° NE 20:29:25 24° E 20:32:46 10° SSE
Cosmos 858 Rocket 4.4 20:26:16 10° S 20:31:24 70° ESE 20:36:34 10° NNE
Hubble Space Telescope 1.2 20:27:49 10° W 20:31:50 49° S 20:35:33 12° ESE
Meteor 2-3 Rocket 4.4 20:27:09 10° SSE 20:32:16 34° E 20:37:20 10° NNE
Envisat 3.4 20:28:10 10° SE 20:32:58 44° ENE 20:37:46 10° N
Cosmos 1933 Rocket 3.6 20:29:15 10° S 20:33:29 56° E 20:37:43 10° NNE
Cosmos 1898 Rocket 3.6 20:28:50 10° SSW 20:34:05 89° E 20:39:25 10° NNE
Cosmos 2112 Rocket 4.1 20:29:10 10° NNW 20:34:31 72° ENE 20:39:51 10° SSE
Cosmos 1680 Rocket 3.6 20:31:46 10° NNW 20:37:07 89° WSW 20:42:25 10° SSE
YAOGAN 6 4.3 20:36:03 12° ESE 20:38:18 19° ENE 20:40:59 10° NNE
Cosmos 192 4.4 20:34:34 10° NNW 20:39:34 86° WSW 20:44:30 10° SSE
Cosmos 990 Rocket 4.0 20:35:18 10° S 20:40:22 59° ESE 20:45:30 10° NNE
Delta 2 Rocket 4.3 20:34:44 10° WSW 20:41:05 63° S 20:48:24 11° E
Cosmos 1862 Rocket 4.0 20:38:33 10° N 20:42:50 43° E 20:47:01 10° SSE
CENTAUR R/B 3.2 20:42:49 10° SSE 20:47:32 27° ESE 20:52:39 10° NE
Cosmos 1513 Rocket 4.5 20:42:09 10° N 20:48:14 89° W 20:54:20 10° S
Helios 1A 3.8 20:46:03 15° SE 20:48:57 32° ENE 20:52:42 10° N
Cosmos 1315 Rocket 3.2 20:45:37 10° SSW 20:49:34 68° W 20:53:37 10° N
GPS 2-04 Rocket1 3.5 20:46:11 10° W 20:49:47 45° NNW 20:53:14 10° ENE
In-Cosmos 22 Rocket 4.3 20:44:41 10° S 20:50:25 87° W 20:56:16 10° N
Meteor 2-10 Rocket 3.8 20:45:24 10° N 20:51:14 72° E 20:56:58 10° SSE
Cosmos 2082 Rocket 2.3 20:46:14 10° NNW 20:51:54 81° WSW 20:57:34 10° SSE
ISS -3.8 20:53:36 10° SW 20:56:50 84° NW 21:00:05 10° NE
COSMOS 2455 2.9 20:52:57 10° S 20:58:50 59° ESE 21:04:44 10° NNE
OAO 3 Copernicus 4.5 20:56:24 10° SW 21:01:15 50° SSE 21:05:39 13° E
COSMOS 2487 2.5 20:58:50 10° NNW 21:02:23 81° WSW 21:05:00 17° S
Cosmos 1825 4.1 21:03:09 14° ENE 21:03:09 14° ENE 21:04:33 10° NE
H-2A R/B 4.1 21:03:42 11° E 21:05:13 12° ENE 21:07:10 10° NE
Cosmos 1833 Rocket 3.1 20:59:41 10° NNW 21:05:15 63° WSW 21:10:46 10° S
Cosmos 1408 4.4 21:06:03 16° ENE 21:06:03 16° ENE 21:07:51 10° NE
DNEPR-1 R/B 4.4 21:08:07 10° S 21:13:32 41° ESE 21:18:06 10° NE
Cosmos 1892 2.9 21:10:24 10° S 21:14:15 74° W 21:18:05 10° N
Cosmos 1937 Rocket 4.4 21:09:41 10° SSW 21:14:38 50° WNW 21:19:38 10° N
Okean 1-7 4.3 21:11:50 10° NNE 21:15:21 23° ENE 21:15:50 22° E
Tiangong 2 3.7 21:16:12 10° NNW 21:18:05 14° NNE 21:19:51 10° NE
Cosmos 1703 Rocket 4.1 21:15:27 10° N 21:19:36 39° E 21:20:44 33° ESE
Meteor 1-29 3.0 21:19:17 10° N 21:22:46 78° WNW 21:25:32 15° SSW
Cosmos 2263 4.3 21:18:58 10° S 21:24:34 55° ESE 21:30:10 10° NNE
USA 186 4.2 21:23:37 10° SW 21:24:58 13° W 21:26:23 10° WNW
Spot 1 4.2 21:23:57 27° SSE 21:26:31 82° ENE 21:31:25 10° N
OAO 2 Rocket 3.2 21:21:40 10° WNW 21:26:44 86° NNE 21:28:53 34° ESE
Cosmos 1943 Rocket 2.5 21:24:19 22° SSE 21:27:30 43° ESE 21:32:45 10° NE
Cosmos 1939 Rocket 3.7 21:27:20 17° S 21:30:21 50° W 21:34:23 10° NNW
Lacrosse 5 rocket 1.4 21:26:59 10° SW 21:30:30 62° NW 21:34:05 10° NNE
NOAA 11 4.4 21:28:14 32° SE 21:30:31 53° ENE 21:35:50 10° N
Cosmos 1869 Rocket 3.4 21:30:49 31° S 21:32:48 74° E 21:37:08 10° N
CZ-4B DEB 2.7 21:37:44 67° W 21:37:44 67° W 21:40:37 10° NNW
FUSE 4.3 21:33:33 10° WSW 21:38:34 44° S 21:39:20 41° SSE
Delta 168 3.5 21:35:28 10° WSW 21:39:19 45° S 21:39:53 43° SSE
Cosmos 1346 Rocket 3.0 21:37:11 10° NNW 21:41:07 67° W 21:42:26 39° SSW
Cosmos 2369 Rocket 2.4 21:35:47 10° SSW 21:41:22 71° WNW 21:47:03 10° NNE
Aurora 2 Rocket 3.9 21:40:51 10° WSW 21:44:23 23° SSW 21:44:23 23° SSW
ERS-1 Rocket 2.9 21:43:22 44° SSE 21:44:56 74° ENE 21:49:58 10° N
Cosmos 2221 Rocket 3.6 21:40:53 10° N 21:45:15 55° E 21:45:32 54° E
Cosmos 1606 3.7 21:48:22 10° N 21:50:59 34° NE 21:50:59 34° NE
Meteor 1-10 Rocket 4.4 21:48:11 10° N 21:54:01 57° E 21:55:13 48° ESE
Cosmos 1634 Rocket 4.1 21:49:59 10° N 21:56:17 77° W 21:59:34 30° S
Shenzhou-11 Module 4.1 21:54:28 10° NW 21:56:30 24° N 21:56:30 24° N
Cosmos 2084 4.5 21:57:34 10° N 22:00:25 31° NNE 22:00:25 31° NNE
SPOT 1/Viking Rocket 4.0 22:02:51 42° ENE 22:02:51 42° ENE 22:07:44 10° N
Nadezhda 4 Rocket 4.2 22:04:23 46° E 22:04:37 46° E 22:10:29 10° NNE
YAOGAN 11 4.4 22:06:28 57° NE 22:06:28 57° NE 22:10:33 10° N
USA 215 3.5 22:04:05 41° E 22:06:11 59° NE 22:12:37 10° NNW
Meteor 2-6 Rocket 4.2 22:04:33 10° N 22:10:31 75° E 22:11:25 63° SE
Hubble Space Telescope 3.1 22:09:38 10° WSW 22:10:54 16° SW 22:10:54 16° SW
Cosmos 468 4.4 22:10:22 10° NNW 22:15:38 76° ENE 22:15:38 76° ENE
Cosmos 1782 3.4 22:11:45 10° N 22:14:58 54° NNW 22:14:58 54° NNW
Lacrosse 4 Rocket 3.5 22:13:20 10° N 22:15:43 19° NE 22:15:43 19° NE
ATLAS 5 CENTAUR R/B 3.5 22:11:39 10° N 22:17:06 32° NE 22:17:52 31° ENE
USA 245 4.3 22:17:09 62° S 22:18:16 85° WSW 22:24:37 10° NNW
MetOp-B 4.3 22:17:32 54° SSW 22:18:31 65° WSW 22:23:50 10° NNW
Cosmos 1269 Rocket 4.4 22:18:00 10° N 22:22:37 51° NE 22:22:37 51° NE
Milstar 3 3.1 22:12:35 10° WSW 22:23:28 68° S 22:25:14 53° ESE
ARGOS 3.2 22:25:05 63° SW 22:25:37 68° WSW 22:30:59 10° NNW
Cosmos 1656 Rocket 4.2 22:31:51 45° NE 22:31:51 45° NE 22:35:43 10° NNE
Cosmos 2279 Rocket 4.2 22:26:18 10° NNW 22:32:29 66° W 22:33:42 54° SW
Cosmos 1825 4.3 22:37:59 23° WNW 22:37:59 23° WNW 22:40:51 10° NNW
CENTAUR R/B 3.8 22:32:22 10° WSW 22:37:48 38° NW 22:43:53 10° NNE
Terra 3.1 22:45:21 34° NNE 22:45:21 34° NNE 22:48:14 10° N
H-2A R/B 2.3 22:44:21 67° WNW 22:44:21 67° WNW 22:49:21 10° NNW
SPOT 5 3.9 22:49:17 45° W 22:49:17 45° W 22:54:21 10° NNW
Cosmos 2344 4.4 22:54:10 10° SW 23:01:33 48° NW 23:09:23 10° NNE
Cosmos 1943 Rocket 4.4 23:07:21 10° WSW 23:11:22 20° WNW 23:15:23 10° NNW
SME Rocket 4.5 23:24:45 63° N 23:24:45 63° N 23:31:37 10° NNW
Cosmos 2297 Rocket 4.4 23:46:09 10° NNE 23:48:16 16° NE 23:48:16 16° NE
